Regional Weather Roundup
Issued by NWS

Home | Current Version | Previous Version | Text Only | Print | Product List | Glossary On
Versions: 1 2 3 4 5 6 7 8 9 10 11 12 13 14 15 16 17 18 19 20 21 22 23 24 25 26 27 28 29 30 31 32 33 34 35 36 37 38 39 40 41 42 43 44 45 46 47 48 49 50
957
ASUS44 KEWX 220603
RWRTX
SOUTH TEXAS REGIONAL WEATHER ROUNDUP
NATIONAL WEATHER SERVICE AUSTIN/SAN ANTONIO TX
1200 AM CST SUN JAN 22 2017

NOTE: "FAIR" INDICATED FEW OR NO CLOUDS BELOW 12,000 FEET WITH NO
SIGNIFICANT WEATHER AND/OR OBSTRUCTIONS TO VISIBILITY.

* - THESE STATIONS ARE NOT NWS OR FAA STATIONS...AND ARE NOT SUBJECT
    TO NWS AND FAA QUALITY CONTROL.

TXZ171-172-183>190-220700-
TEXAS HILL COUNTRY AND EDWARDS PLATEAU

CITY           SKY/WX    TMP DP  RH WIND       PRES   REMARKS
JUNCTION       CLEAR     55  30  38 W20G29    29.65S
6HR MIN TEMP:  53; 6HR MAX TEMP:  62; 6HR PCP:  0.01;

*LLANO         PTCLDY    61  32  33 W22G31    29.63R
BURNET         PTCLDY    59  30  33 W20G32      N/A
6HR MIN TEMP:  58; 6HR MAX TEMP:  68; 6HR PCP: TRACE;

*HORSESHOE BAY PTCLDY    61  30  31 W25G36    29.60S
6HR MIN TEMP:  60; 6HR MAX TEMP:  71;

*KERRVILLE     CLOUDY    59  30  33 W28G43    29.66R
6HR MIN TEMP:  57; 6HR MAX TEMP:  67;

*FREDERICKSBRG PTCLDY    56  27  31 W28G35    29.65S
6HR MIN TEMP:  56; 6HR MAX TEMP:  65;

*ROCKSPRINGS   PTCLDY    54  32  43 NW18G26   29.71R
*BOERNE STAGE  CLOUDY    59  28  31 NW17G29   29.64F
*CASTROVILLE   CLOUDY    64  28  25 NW26G38   29.65F
HONDO          CLOUDY    65  31  28 NW28G48   29.65S
6HR MIN TEMP:  63; 6HR MAX TEMP:  76; 6HR PCP: TRACE;

*UVALDE        CLOUDY    60  39  46 NW24G30   29.71R
6HR MIN TEMP:  60; 6HR MAX TEMP:  75;

DEL RIO        MOCLDY    61  37  41 W21G29    29.75R
6HR MIN TEMP:  59; 6HR MAX TEMP:  65; 6HR PCP: TRACE;

LAUGHLIN AFB   MOCLDY    61  44  54 W24G30    29.73S
6HR MIN TEMP:  58; 6HR MAX TEMP:  66; 6HR PCP: TRACE;

CARRIZO SPRGS  CLEAR     63  36  36 NW21G29   29.69S
*EAGLE PASS    PTCLDY    64  36  34 NW23G38   29.72R
$$

TXZ173-191>194-202-209-217>225-228-220700-
CENTRAL AND SOUTH CENTRAL TEXAS

CITY           SKY/WX    TMP DP  RH WIND       PRES   REMARKS
GEORGETOWN     PTCLDY    61  34  36 W16G32    29.56F
6HR MIN TEMP:  61; 6HR MAX TEMP:  72;

AUSTIN/BERGSTM CLOUDY    65  32  29 W22G32    29.54F
6HR MIN TEMP:  65; 6HR MAX TEMP:  74; 6HR PCP: TRACE;

AUSTIN/MABRY   PTCLDY    64  33  31 W12G32    29.57F
6HR MIN TEMP:  63; 6HR MAX TEMP:  70; 6HR PCP: TRACE;

*AUSTIN/EXEC   PTCLDY    63  32  31 W24G31    29.54F
*LAGO VISTA    CLOUDY    61  31  32 W16G29    29.58R
6HR MIN TEMP:  61; 6HR MAX TEMP:  72;

SAN MARCOS     CLOUDY    64  28  25 W24G43    29.58S
6HR MIN TEMP:  63; 6HR MAX TEMP:  75;

NEW BRAUNFELS  CLOUDY    65  31  28 NW30G41   29.59S
6HR MIN TEMP:  65; 6HR MAX TEMP:  74;

RANDOLPH AFB   CLOUDY    65  27  24 NW28G39   29.59F
6HR MIN TEMP:  64; 6HR MAX TEMP:  78;

PT SAN ANTONIO CLOUDY    65  30  26 W24G35    29.61F
6HR MIN TEMP:  65; 6HR MAX TEMP:  80; 6HR PCP: TRACE;

SAN ANTONIO    CLOUDY    64  28  25 NW31G48   29.62S
6HR MIN TEMP:  64; 6HR MAX TEMP:  78; 6HR PCP: TRACE;

STINSON FIELD  CLOUDY    68  28  22 W24G39    29.61F
6HR MIN TEMP:  67; 6HR MAX TEMP:  82;

*PLEASANTON    CLOUDY    65  33  30 NW17G25   29.65S
6HR MIN TEMP:  64; 6HR MAX TEMP:  84;

*LA GRANGE     CLOUDY    67  41  38 W9        29.60R
6HR MIN TEMP:  62; 6HR MAX TEMP:  74;

*GIDDINGS      CLOUDY    63  39  40 W7        29.59F
6HR MIN TEMP:  58; 6HR MAX TEMP:  72;

*GONZALES      CLOUDY    64  41  43 W5        29.61R
6HR MIN TEMP:  64; 6HR MAX TEMP:  77;

$$

TXZ163>164-176>182-195>201-210>213-226-227-235-220700-
SOUTHEAST TEXAS

CITY           SKY/WX    TMP DP  RH WIND       PRES   REMARKS
COLLEGE STN    CLOUDY    57  52  83 S5        29.57S
6HR MIN TEMP:  57; 6HR MAX TEMP:  73; 6HR PCP:  0.01;

*BRYAN         CLOUDY    58  50  75 S3        29.57S
6HR MIN TEMP:  56; 6HR MAX TEMP:  69; 6HR PCP:  0.05;

*CALDWELL      NOT AVBL
*CROCKETT      CLOUDY    55  50  82 SE5       29.57F
*BRENHAM       CLOUDY    61  50  66 CALM      29.56F
6HR MIN TEMP:  59; 6HR MAX TEMP:  75; 6HR PCP:  0.01;

HUNTSVILLE     CLOUDY    58  50  75 S5        29.55F
6HR MIN TEMP:  58; 6HR MAX TEMP:  69; 6HR PCP:  0.01;

CONROE         CLOUDY    61  48  62 NW10      29.57F
6HR MIN TEMP:  56; 6HR MAX TEMP:  69; 6HR PCP:  0.01;

HOUSTON BUSH   LGT RAIN  63  51  65 NW7       29.56F
6HR MIN TEMP:  62; 6HR MAX TEMP:  71; 6HR PCP:  0.01;

HOUSTON HOBBY  TSTM      63  50  62 NW13      29.60R
6HR MIN TEMP:  63; 6HR MAX TEMP:  74; 6HR PCP:  0.10;

*HOUSTON SW AP CLOUDY    61  52  71 NW8       29.62R
6HR MIN TEMP:  61; 6HR MAX TEMP:  73; 6HR PCP:  0.08;

PEARLAND       PTCLDY    67  49  52 NW10G21   29.59R
6HR MIN TEMP:  67; 6HR MAX TEMP:  76; 6HR PCP: TRACE;

HOUSTON HOOKS  PTCLDY    62  50  64 NW7       29.58S
6HR MIN TEMP:  60; 6HR MAX TEMP:  70; 6HR PCP:  0.03;

ELLINGTON FLD  NOT AVBL
SUGAR LAND     CLOUDY    62  51  67 NW7       29.59R
6HR MIN TEMP:  62; 6HR MAX TEMP:  72; 6HR PCP:  0.04;

*HOUSTON EXEC  CLOUDY    59  52  77 NW5       29.62R
*CLEVELAND MUN MOCLDY    60  55  82 NW6       29.58F
6HR MIN TEMP:  58; 6HR MAX TEMP:  67; 6HR PCP:  0.03;

*WHARTON       CLOUDY    64  48  56 N8        29.61F
*COLUMBUS      CLOUDY    63  44  51 W5        29.60F
6HR MIN TEMP:  63; 6HR MAX TEMP:  71;

*EAGLE LAKE    CLOUDY    65  54  68 CALM      29.59F
6HR MIN TEMP:  65; 6HR MAX TEMP:  73;

$$

TXZ214>216-236>238-220700-
THE UPPER TEXAS COAST

CITY           SKY/WX    TMP DP  RH WIND       PRES   REMARKS
*ORANGE        CLOUDY    65  64  97 SW8       29.58R FOG
6HR MIN TEMP:  61; 6HR MAX TEMP:  71;

PORT ARTHUR    CLOUDY    64  62  93 SW8       29.55R
6HR MIN TEMP:  61; 6HR MAX TEMP:  70;

GALVESTON      LGT RAIN  68  64  87 NW7       29.57R
6HR MIN TEMP:  66; 6HR MAX TEMP:  71; 6HR PCP:  0.03;

ANGLETON       CLOUDY    67  61  81 NW9G17    29.61R
6HR MIN TEMP:  62; 6HR MAX TEMP:  69; 6HR PCP:  0.02;

*BAY CITY      PTCLDY    66  55  65 N10       29.60R
PALACIOS       PTCLDY    65  50  58 N13       29.59S
6HR MIN TEMP:  62; 6HR MAX TEMP:  68;

$$

TXZ229>234-239>247-220700-
TEXAS COASTAL BEND AND RIO GRANDE PLAINS

CITY           SKY/WX    TMP DP  RH WIND       PRES   REMARKS
VICTORIA       PTCLDY    62  48  60 NW6       29.62R
6HR MIN TEMP:  62; 6HR MAX TEMP:  75;

*BEEVILLE      PTCLDY    65  45  48 N9        29.65R
6HR MIN TEMP:  65; 6HR MAX TEMP:  82;

ROCKPORT       PTCLDY    65  57  75 N12       29.62R
6HR MIN TEMP:  64; 6HR MAX TEMP:  70;

*PORT ARANSAS  PTCLDY    67  56  65 N14       29.61R
6HR MIN TEMP:  66; 6HR MAX TEMP:  77;

*PORT LAVACA   PTCLDY    63  51  64 N12       29.60S
6HR MIN TEMP:  63; 6HR MAX TEMP:  69;

*INGLESIDE     PTCLDY    67  53  61 N14G24    29.61R
CORPUS CHRISTI PTCLDY    67  44  43 N15       29.62R
6HR MIN TEMP:  67; 6HR MAX TEMP:  83;

CORPUS NAS     NOT AVBL
*ROBSTOWN      PTCLDY    67  45  45 N13       29.63R
6HR MIN TEMP:  67; 6HR MAX TEMP:  83;

ALICE          CLEAR     66  40  38 N13       29.65R
6HR MIN TEMP:  66; 6HR MAX TEMP:  86;

KINGSVILLE NAS CLEAR     67  44  43 N14       29.63R
6HR MIN TEMP:  67; 6HR MAX TEMP:  83;

COTULLA        CLEAR     67  35  30 NW22G35   29.69R
6HR MIN TEMP:  63; 6HR MAX TEMP:  88;

*FAITH RANCH   CLOUDY    63  39  42 NW18G30   29.69R
LAREDO         CLEAR     65  41  41 NW12      29.72R
6HR MIN TEMP:  64; 6HR MAX TEMP:  87;

$$

TXZ248>255-220700-
DEEP SOUTH TEXAS

CITY           SKY/WX    TMP DP  RH WIND       PRES   REMARKS
BROWNSVILLE    MOCLDY    74  66  76 SW12      29.50R
6HR MIN TEMP:  68; 6HR MAX TEMP:  80;

PORT ISABEL    CLEAR     69  56  62 NW20G32   29.54R
6HR MIN



USA.gov is the U.S. government's official web portal to all federal, state and local government web resources and services.